| time (UTC) | temp C | wind direction | speed KPH | gust KPH | rain 1hr cm | rain 24hr cm | rain mn cm | humidity % | barometer mb |
| 20260509054628 | 11 | 319 | 1.6 | 8.0 | 0.00 | 0.00 | 0.00 | 46 | 1018.7 |
| 20260509053615 | 11 | 49 | 6.4 | 9.7 | 0.00 | 0.00 | 0.00 | 47 | 1018.6 |
| 20260509052624 | 12 | 55 | 1.6 | 14.5 | 0.00 | 0.00 | 0.00 | 45 | 1018.6 |
| 20260509051612 | 12 | 57 | 0.0 | 3.2 | 0.00 | 0.00 | 0.00 | 46 | 1018.6 |
| 20260509050624 | 12 | 128 | 0.0 | 1.6 | 0.00 | 0.00 | 0.00 | 45 | 1018.6 |
| 20260509045626 | 13 | 141 | 0.0 | 1.6 | 0.00 | 0.00 | 0.00 | 44 | 1018.6 |
| 20260509044616 | 13 | 111 | 3.2 | 4.8 | 0.00 | 0.00 | 0.00 | 45 | 1018.4 |
| 20260509043626 | 13 | 107 | 0.0 | 3.2 | 0.00 | 0.00 | 0.00 | 45 | 1018.5 |
| 20260509042618 | 13 | 151 | 4.8 | 8.0 | 0.00 | 0.00 | 0.00 | 44 | 1018.4 |
| 20260509041643 | 13 | 38 | 0.0 | 4.8 | 0.00 | 0.00 | 0.00 | 44 | 1018.3 |
| 20260509040631 | 14 | 44 | 0.0 | 3.2 | 0.00 | 0.00 | 0.00 | 43 | 1018.4 |
| 20260509035631 | 14 | 44 | 1.6 | 4.8 | 0.00 | 0.00 | 0.00 | 41 | 1018.5 |
| 20260509034619 | 13 | 32 | 1.6 | 6.4 | 0.00 | 0.00 | 0.00 | 44 | 1018.5 |
| 20260509033626 | 14 | 38 | 1.6 | 4.8 | 0.00 | 0.00 | 0.00 | 41 | 1018.2 |
| 20260509032631 | 15 | 26 | 3.2 | 6.4 | 0.00 | 0.00 | 0.00 | 45 | 1018.1 |
| 20260509031616 | 15 | 47 | 3.2 | 4.8 | 0.00 | 0.00 | 0.00 | 41 | 1018.0 |
| 20260509030628 | 15 | 30 | 1.6 | 3.2 | 0.00 | 0.00 | 0.00 | 43 | 1017.9 |
| 20260509025615 | 15 | 16 | 3.2 | 4.8 | 0.00 | 0.00 | 0.00 | 48 | 1017.8 |
| 20260509024619 | 16 | 56 | 1.6 | 4.8 | 0.00 | 0.00 | 0.00 | 39 | 1017.6 |
| 20260509023627 | 16 | 344 | 0.0 | 6.4 | 0.00 | 0.00 | 0.00 | 40 | 1017.4 |
| 20260509022639 | 17 | 350 | 0.0 | 3.2 | 0.00 | 0.00 | 0.00 | 36 | 1017.2 |
| 20260509021624 | 18 | 324 | 0.0 | 3.2 | 0.00 | 0.00 | 0.00 | 35 | 1017.2 |
| 20260509020616 | 18 | 273 | 0.0 | 4.8 | 0.00 | 0.00 | 0.00 | 30 | 1017.1 |
| 20260509015614 | 18 | 173 | 0.0 | 3.2 | 0.00 | 0.00 | 0.00 | 30 | 1017.1 |
| 20260509014622 | 18 | 184 | 1.6 | 3.2 | 0.00 | 0.00 | 0.00 | 31 | 1017.1 |
| 20260509013615 | 18 | 190 | 3.2 | 8.0 | 0.00 | 0.00 | 0.00 | 31 | 1017.1 |
| 20260509012646 | 18 | 202 | 6.4 | 9.7 | 0.00 | 0.00 | 0.00 | 30 | 1017.0 |
| 20260509011615 | 18 | 115 | 6.4 | 17.7 | 0.00 | 0.00 | 0.00 | 30 | 1017.1 |
| 20260509010615 | 19 | 180 | 4.8 | 12.9 | 0.00 | 0.00 | 0.00 | 29 | 1017.1 |
| 20260509005639 | 20 | 197 | 9.7 | 12.9 | 0.00 | 0.00 | 0.00 | 27 | 1017.1 |
| 20260509004627 | 20 | 156 | 6.4 | 14.5 | 0.00 | 0.00 | 0.00 | 28 | 1017.1 |
| 20260509003616 | 20 | 202 | 9.7 | 16.1 | 0.00 | 0.00 | 0.00 | 27 | 1017.2 |
| 20260509002622 | 20 | 161 | 9.7 | 16.1 | 0.00 | 0.00 | 0.00 | 28 | 1017.3 |
| 20260509001622 | 20 | 217 | 8.0 | 16.1 | 0.00 | 0.00 | 0.00 | 26 | 1017.1 |
| 20260509000612 | 20 | 194 | 3.2 | 14.5 | 0.00 | 0.00 | 0.00 | 27 | 1017.2 |
| 20260508235635 | 20 | 191 | 9.7 | 16.1 | 0.00 | 0.00 | 0.00 | 27 | 1017.3 |
| 20260508234620 | 20 | 206 | 6.4 | 16.1 | 0.00 | 0.00 | 0.00 | 25 | 1017.4 |
| 20260508233627 | 20 | 36 | 3.2 | 16.1 | 0.00 | 0.00 | 0.00 | 27 | 1017.3 |
| 20260508232616 | 20 | 213 | 11.3 | 22.5 | 0.00 | 0.00 | 0.00 | 28 | 1017.2 |
| 20260508231622 | 20 | 210 | 11.3 | 16.1 | 0.00 | 0.00 | 0.00 | 26 | 1017.5 |
| 20260508230612 | 20 | 182 | 11.3 | 17.7 | 0.00 | 0.00 | 0.00 | 30 | 1017.4 |
| 20260508225632 | 20 | 179 | 11.3 | 17.7 | 0.00 | 0.00 | 0.00 | 28 | 1017.6 |
| 20260508224626 | 20 | 198 | 9.7 | 22.5 | 0.00 | 0.00 | 0.00 | 30 | 1017.6 |
| 20260508223615 | 20 | 153 | 9.7 | 20.9 | 0.00 | 0.00 | 0.00 | 30 | 1017.9 |
| 20260508222624 | 20 | 166 | 14.5 | 22.5 | 0.00 | 0.00 | 0.00 | 29 | 1018.1 |
| 20260508221631 | 20 | 173 | 8.0 | 22.5 | 0.00 | 0.00 | 0.00 | 31 | 1018.2 |
| 20260508220642 | 20 | 155 | 16.1 | 25.7 | 0.00 | 0.00 | 0.00 | 30 | 1018.4 |
| 20260508215621 | 20 | 143 | 3.2 | 11.3 | 0.00 | 0.00 | 0.00 | 30 | 1018.6 |
| 20260508214629 | 20 | 198 | 12.9 | 25.7 | 0.00 | 0.00 | 0.00 | 33 | 1018.5 |
| 20260508213619 | 19 | 209 | 14.5 | 20.9 | 0.00 | 0.00 | 0.00 | 31 | 1018.7 |
| 20260508212614 | 18 | 346 | 6.4 | 29.0 | 0.00 | 0.00 | 0.00 | 30 | 1018.9 |
| 20260508211625 | 20 | 213 | 12.9 | 22.5 | 0.00 | 0.00 | 0.00 | 29 | 1018.9 |
| 20260508210613 | 18 | 205 | 0.0 | 20.9 | 0.00 | 0.00 | 0.00 | 30 | 1018.9 |
| 20260508205613 | 19 | 240 | 11.3 | 41.8 | 0.00 | 0.00 | 0.00 | 31 | 1019.1 |
| 20260508204624 | 19 | 161 | 9.7 | 43.5 | 0.00 | 0.00 | 0.00 | 34 | 1018.8 |
| 20260508203612 | 18 | 119 | 3.2 | 8.0 | 0.00 | 0.00 | 0.00 | 33 | 1019.2 |
| 20260508202623 | 18 | 92 | 1.6 | 20.9 | 0.00 | 0.00 | 0.00 | 32 | 1019.2 |
| 20260508201632 | 17 | 52 | 3.2 | 14.5 | 0.00 | 0.00 | 0.00 | 34 | 1019.2 |
| 20260508200630 | 17 | 213 | 11.3 | 17.7 | 0.00 | 0.00 | 0.00 | 32 | 1019.2 |
| 20260508195628 | 17 | 211 | 4.8 | 12.9 | 0.00 | 0.00 | 0.00 | 34 | 1019.2 |
| 20260508194616 | 17 | 325 | 8.0 | 20.9 | 0.00 | 0.00 | 0.00 | 33 | 1019.2 |
| 20260508193625 | 17 | 46 | 9.7 | 16.1 | 0.00 | 0.00 | 0.00 | 32 | 1019.4 |
| 20260508192639 | 17 | 22 | 9.7 | 22.5 | 0.00 | 0.00 | 0.00 | 32 | 1019.4 |
| 20260508191625 | 18 | 69 | 3.2 | 11.3 | 0.00 | 0.00 | 0.00 | 31 | 1019.3 |
| 20260508190624 | 17 | 159 | 4.8 | 11.3 | 0.00 | 0.00 | 0.00 | 32 | 1019.4 |
| 20260508185625 | 17 | 94 | 3.2 | 20.9 | 0.00 | 0.00 | 0.00 | 32 | 1019.5 |
| 20260508184621 | 17 | 355 | 9.7 | 19.3 | 0.00 | 0.00 | 0.00 | 34 | 1019.6 |
| 20260508183631 | 16 | 355 | 8.0 | 24.1 | 0.00 | 0.00 | 0.00 | 33 | 1019.5 |
| 20260508182622 | 17 | 17 | 4.8 | 14.5 | 0.00 | 0.00 | 0.00 | 33 | 1019.7 |
| 20260508181630 | 17 | 74 | 8.0 | 17.7 | 0.00 | 0.00 | 0.00 | 31 | 1020.1 |
| 20260508180651 | 16 | 32 | 6.4 | 16.1 | 0.00 | 0.00 | 0.00 | 32 | 1019.9 |
| 20260508175614 | 16 | 74 | 4.8 | 19.3 | 0.00 | 0.00 | 0.00 | 34 | 1020.1 |
| 20260508174619 | 16 | 59 | 4.8 | 22.5 | 0.00 | 0.00 | 0.00 | 32 | 1020.1 |
| 20260508173624 | 16 | 360 | 4.8 | 20.9 | 0.00 | 0.00 | 0.00 | 33 | 1020.1 |
| 20260508172612 | 16 | 351 | 8.0 | 19.3 | 0.00 | 0.00 | 0.00 | 33 | 1020.1 |
| 20260508171644 | 16 | 198 | 4.8 | 20.9 | 0.00 | 0.00 | 0.00 | 33 | 1019.9 |
| 20260508170650 | 16 | 360 | 4.8 | 17.7 | 0.00 | 0.00 | 0.00 | 30 | 1019.9 |
| 20260508165622 | 16 | 46 | 8.0 | 16.1 | 0.00 | 0.00 | 0.00 | 29 | 1019.9 |
| 20260508164613 | 16 | 355 | 6.4 | 14.5 | 0.00 | 0.00 | 0.00 | 28 | 1019.9 |
| 20260508163626 | 16 | 166 | 14.5 | 22.5 | 0.00 | 0.00 | 0.00 | 28 | 1019.7 |
| 20260508162615 | 16 | 333 | 8.0 | 20.9 | 0.00 | 0.00 | 0.00 | 29 | 1019.7 |
| 20260508161624 | 16 | 24 | 12.9 | 22.5 | 0.00 | 0.00 | 0.00 | 32 | 1019.6 |
| 20260508160630 | 16 | 5 | 4.8 | 17.7 | 0.00 | 0.00 | 0.00 | 32 | 1019.6 |
| 20260508155625 | 16 | 11 | 8.0 | 22.5 | 0.00 | 0.00 | 0.00 | 35 | 1019.5 |
| 20260508154617 | 16 | 156 | 3.2 | 12.9 | 0.00 | 0.00 | 0.00 | 30 | 1019.5 |
| 20260508153622 | 16 | 56 | 4.8 | 12.9 | 0.00 | 0.00 | 0.00 | 31 | 1019.5 |
| 20260508152628 | 15 | 344 | 4.8 | 14.5 | 0.00 | 0.00 | 0.00 | 31 | 1019.5 |
| 20260508151620 | 15 | 340 | 3.2 | 12.9 | 0.00 | 0.00 | 0.00 | 31 | 1019.3 |
| 20260508150648 | 15 | 346 | 4.8 | 19.3 | 0.00 | 0.00 | 0.00 | 31 | 1019.4 |
| 20260508145625 | 15 | 5 | 1.6 | 14.5 | 0.00 | 0.00 | 0.00 | 32 | 1019.3 |
| 20260508144649 | 14 | 28 | 4.8 | 6.4 | 0.00 | 0.00 | 0.00 | 38 | 1019.2 |
| 20260508143616 | 14 | 248 | 1.6 | 4.8 | 0.00 | 0.00 | 0.00 | 39 | 1019.2 |
| 20260508142627 | 14 | 178 | 0.0 | 11.3 | 0.00 | 0.00 | 0.00 | 39 | 1019.3 |
| 20260508141635 | 14 | 69 | 3.2 | 12.9 | 0.00 | 0.00 | 0.00 | 37 | 1019.0 |
| 20260508140625 | 13 | 59 | 1.6 | 14.5 | 0.00 | 0.00 | 0.00 | 38 | 1018.9 |
| 20260508135621 | 13 | 5 | 4.8 | 8.0 | 0.00 | 0.00 | 0.00 | 38 | 1019.0 |
| 20260508134612 | 12 | 348 | 4.8 | 9.7 | 0.00 | 0.00 | 0.00 | 39 | 1018.9 |
| 20260508133619 | 11 | 346 | 1.6 | 6.4 | 0.00 | 0.00 | 0.00 | 44 | 1018.7 |
| 20260508132627 | 11 | 224 | 0.0 | 3.2 | 0.00 | 0.00 | 0.00 | 43 | 1018.6 |
| 20260508131614 | 11 | 138 | 0.0 | 8.0 | 0.00 | 0.00 | 0.00 | 41 | 1018.4 |
| 20260508130649 | 11 | 169 | 0.0 | 4.8 | 0.00 | 0.00 | 0.00 | 42 | 1018.3 |
| 20260508125627 | 12 | 146 | 0.0 | 6.4 | 0.00 | 0.00 | 0.00 | 40 | 1018.1 |
| 20260508124651 | 11 | 113 | 1.6 | 6.4 | 0.00 | 0.00 | 0.00 | 39 | 1018.1 |
| 20260508123618 | 12 | 132 | 1.6 | 4.8 | 0.00 | 0.00 | 0.00 | 39 | 1018.1 |
| 20260508122627 | 11 | 110 | 0.0 | 3.2 | 0.00 | 0.00 | 0.00 | 40 | 1018.0 |
| 20260508121641 | 11 | 105 | 1.6 | 4.8 | 0.00 | 0.00 | 0.00 | 39 | 1018.0 |
| 20260508120629 | 11 | 138 | 1.6 | 6.4 | 0.00 | 0.00 | 0.00 | 41 | 1017.8 |
| 20260508115631 | 11 | 83 | 0.0 | 0.0 | 0.00 | 0.00 | 0.00 | 43 | 1017.8 |
| 20260508114636 | 12 | 115 | 0.0 | 4.8 | 0.00 | 0.00 | 0.00 | 40 | 1017.7 |
| 20260508113621 | 12 | 27 | 1.6 | 8.0 | 0.00 | 0.00 | 0.00 | 38 | 1017.7 |
| 20260508112631 | 13 | 10 | 4.8 | 16.1 | 0.00 | 0.00 | 0.00 | 36 | 1017.6 |
| 20260508111621 | 13 | 5 | 9.7 | 22.5 | 0.00 | 0.00 | 0.00 | 35 | 1017.5 |
| 20260508110631 | 12 | 348 | 8.0 | 14.5 | 0.00 | 0.00 | 0.00 | 38 | 1017.6 |
| 20260508105627 | 12 | 51 | 3.2 | 14.5 | 0.00 | 0.00 | 0.00 | 39 | 1017.5 |
| 20260508104636 | 11 | 36 | 1.6 | 6.4 | 0.00 | 0.00 | 0.00 | 41 | 1017.5 |
| 20260508103623 | 12 | 63 | 0.0 | 6.4 | 0.00 | 0.00 | 0.00 | 39 | 1017.4 |
| 20260508102613 | 12 | 40 | 4.8 | 6.4 | 0.00 | 0.00 | 0.00 | 37 | 1017.4 |
| 20260508101623 | 13 | 329 | 6.4 | 17.7 | 0.00 | 0.00 | 0.00 | 37 | 1017.3 |
| 20260508100615 | 13 | 49 | 4.8 | 17.7 | 0.00 | 0.00 | 0.00 | 35 | 1017.3 |
| 20260508095613 | 13 | 36 | 12.9 | 20.9 | 0.00 | 0.00 | 0.00 | 35 | 1017.3 |
| 20260508094620 | 13 | 348 | 9.7 | 16.1 | 0.00 | 0.00 | 0.00 | 35 | 1017.3 |
| 20260508093625 | 12 | 9 | 4.8 | 11.3 | 0.00 | 0.00 | 0.00 | 36 | 1017.3 |
| 20260508092616 | 12 | 65 | 1.6 | 8.0 | 0.00 | 0.00 | 0.00 | 38 | 1017.3 |
| 20260508091623 | 12 | 109 | 0.0 | 3.2 | 0.00 | 0.00 | 0.00 | 36 | 1017.4 |
| 20260508090614 | 13 | 101 | 1.6 | 6.4 | 0.00 | 0.00 | 0.00 | 34 | 1017.4 |
| 20260508085615 | 13 | 324 | 0.0 | 9.7 | 0.00 | 0.00 | 0.00 | 35 | 1017.4 |
| 20260508084624 | 14 | 225 | 6.4 | 11.3 | 0.00 | 0.00 | 0.00 | 31 | 1017.4 |
| 20260508083630 | 13 | 199 | 6.4 | 17.7 | 0.00 | 0.00 | 0.00 | 33 | 1017.5 |
| 20260508082618 | 13 | 104 | 0.0 | 8.0 | 0.00 | 0.00 | 0.00 | 36 | 1017.6 |
| 20260508081627 | 12 | 47 | 11.3 | 19.3 | 0.00 | 0.00 | 0.00 | 34 | 1017.5 |
| 20260508080626 | 11 | 11 | 8.0 | 17.7 | 0.00 | 0.00 | 0.00 | 43 | 1017.6 |
| 20260508075643 | 11 | 341 | 9.7 | 20.9 | 0.00 | 0.00 | 0.00 | 38 | 1017.6 |
| 20260508074627 | 10 | 277 | 1.6 | 6.4 | 0.00 | 0.00 | 0.00 | 52 | 1017.6 |
| 20260508073616 | 10 | 24 | 3.2 | 8.0 | 0.00 | 0.00 | 0.00 | 54 | 1017.7 |
| 20260508072628 | 10 | 25 | 1.6 | 6.4 | 0.00 | 0.00 | 0.00 | 53 | 1017.6 |
| 20260508071614 | 10 | 159 | 0.0 | 0.0 | 0.00 | 0.00 | 0.00 | 52 | 1017.7 |
| 20260508070628 | 10 | 180 | 1.6 | 6.4 | 0.00 | 0.00 | 0.00 | 53 | 1017.8 |
| 20260508065629 | 9 | 22 | 1.6 | 6.4 | 0.00 | 0.00 | 0.00 | 55 | 1017.7 |
| 20260508064638 | 9 | 55 | 0.0 | 9.7 | 0.00 | 0.00 | 0.00 | 56 | 1017.6 |
| 20260508063630 | 10 | 104 | 0.0 | 4.8 | 0.00 | 0.00 | 0.00 | 55 | 1017.6 |
| 20260508062617 | 11 | 33 | 3.2 | 16.1 | 0.00 | 0.00 | 0.00 | 52 | 1017.6 |
| 20260508061624 | 10 | 61 | 4.8 | 8.0 | 0.00 | 0.00 | 0.00 | 55 | 1017.7 |
| 20260508060640 | 10 | 42 | 4.8 | 8.0 | 0.00 | 0.00 | 0.00 | 56 | 1017.5 |
| 20260508055639 | 10 | 355 | 1.6 | 6.4 | 0.00 | 0.00 | 0.00 | 53 | 1017.5 |